TimeEST,TemperatureF,Dew PointF,Humidity,Sea Level PressureIn,VisibilityMPH,Wind Direction,Wind SpeedMPH,Gust SpeedMPH,PrecipitationIn,Events,Conditions,WindDirDegrees,DateUTC
12:51 AM,32.0,25.0,75,29.73,4.0,WSW,12.7,18.4,0.00,Snow,Light Snow,250,2013-02-28 05:51:00
1:12 AM,30.2,24.8,80,29.68,5.0,West,8.1,16.1,0.00,Snow,Light Snow,260,2013-02-28 06:12:00
1:51 AM,30.9,25.0,79,29.72,5.0,West,5.8,-,0.00,Snow,Light Snow,270,2013-02-28 06:51:00
2:51 AM,30.9,23.0,72,29.71,10.0,West,4.6,-,0.01,,Overcast,260,2013-02-28 07:51:00
3:04 AM,30.2,24.8,80,29.66,10.0,WSW,8.1,-,N/A,,Overcast,250,2013-02-28 08:04:00
3:51 AM,30.9,24.1,76,29.70,8.0,WSW,9.2,-,0.00,Snow,Light Snow,250,2013-02-28 08:51:00
4:51 AM,30.9,24.1,76,29.70,9.0,West,12.7,19.6,0.00,Snow,Light Snow,270,2013-02-28 09:51:00
5:44 AM,30.2,24.8,80,29.64,5.0,WSW,8.1,-,0.00,Snow,Light Snow,240,2013-02-28 10:44:00
5:51 AM,30.9,24.1,76,29.70,5.0,Variable,4.6,-,0.00,Snow,Light Snow,0,2013-02-28 10:51:00
6:51 AM,30.9,24.1,76,29.70,7.0,SW,5.8,-,0.00,Snow,Light Snow,220,2013-02-28 11:51:00
7:51 AM,30.9,24.1,76,29.70,2.5,WSW,13.8,23.0,0.00,Snow,Light Snow,240,2013-02-28 12:51:00
8:08 AM,30.2,24.8,80,29.66,1.0,West,12.7,-,0.01,Snow,Light Snow,260,2013-02-28 13:08:00
8:51 AM,30.2,24.8,80,29.67,1.5,WSW,9.2,-,N/A,Snow,Light Snow,250,2013-02-28 13:51:00
9:24 AM,30.2,23.0,75,29.67,2.5,WSW,6.9,-,0.00,Snow,Light Snow,250,2013-02-28 14:24:00
9:33 AM,30.2,23.0,75,29.67,4.0,West,5.8,-,0.00,Snow,Light Snow,280,2013-02-28 14:33:00
9:51 AM,30.0,23.0,75,29.73,3.0,West,6.9,-,0.00,Snow,Light Snow,270,2013-02-28 14:51:00
9:57 AM,30.2,24.8,80,29.67,1.8,SW,8.1,-,0.00,Snow,Light Snow,230,2013-02-28 14:57:00
10:20 AM,30.2,23.0,75,29.68,2.0,WSW,11.5,18.4,0.00,Snow,Light Snow,250,2013-02-28 15:20:00
10:28 AM,30.2,23.0,75,29.68,1.5,WSW,11.5,-,0.00,Snow,Light Snow,250,2013-02-28 15:28:00
10:40 AM,30.2,23.0,75,29.68,2.5,West,6.9,18.4,0.01,Snow,Light Snow,270,2013-02-28 15:40:00
10:51 AM,30.0,23.0,75,29.74,2.0,WSW,9.2,-,0.01,Snow,Light Snow,240,2013-02-28 15:51:00
11:51 AM,30.9,23.0,72,29.75,3.0,West,9.2,-,0.00,Snow,Light Snow,260,2013-02-28 16:51:00
12:44 PM,30.2,23.0,75,29.68,2.5,West,11.5,18.4,0.00,Snow,Light Snow,260,2013-02-28 17:44:00
12:51 PM,30.9,23.0,72,29.75,2.0,WSW,11.5,20.7,0.00,Snow,Light Snow,250,2013-02-28 17:51:00
1:12 PM,30.2,24.8,80,29.69,1.8,WSW,10.4,16.1,N/A,Snow,Light Snow,250,2013-02-28 18:12:00
1:51 PM,30.0,24.1,79,29.75,2.0,SW,12.7,18.4,0.01,Snow,Light Snow,230,2013-02-28 18:51:00
2:47 PM,30.2,24.8,80,29.68,1.5,WSW,10.4,-,0.00,Snow,Light Snow,250,2013-02-28 19:47:00
2:51 PM,30.9,24.1,76,29.75,1.2,WSW,11.5,-,0.00,Snow,Light Snow,250,2013-02-28 19:51:00
3:39 PM,30.2,24.8,80,29.69,2.0,SW,13.8,-,0.01,Snow,Light Snow,230,2013-02-28 20:39:00
3:51 PM,30.9,25.0,79,29.75,2.5,WSW,10.4,19.6,0.01,Snow,Light Snow,240,2013-02-28 20:51:00
4:21 PM,30.2,24.8,80,29.69,4.0,West,5.8,18.4,0.00,Snow,Light Snow,260,2013-02-28 21:21:00
4:43 PM,30.2,24.8,80,29.69,2.5,WSW,12.7,24.2,0.00,Snow,Light Snow,250,2013-02-28 21:43:00
4:51 PM,30.9,25.0,79,29.76,3.0,WSW,16.1,23.0,0.00,Snow,Light Snow,250,2013-02-28 21:51:00
5:51 PM,30.9,25.0,79,29.79,4.0,WSW,12.7,18.4,0.00,Snow,Light Snow,250,2013-02-28 22:51:00
6:51 PM,30.9,25.0,79,29.81,4.0,West,13.8,24.2,0.00,Snow,Light Snow,270,2013-02-28 23:51:00
7:51 PM,30.9,26.1,82,29.84,3.0,West,9.2,-,0.01,Snow,Light Snow,260,2013-03-01 00:51:00
8:49 PM,30.2,26.6,86,29.78,5.0,WNW,10.4,19.6,0.00,,Overcast,290,2013-03-01 01:49:00
8:51 PM,30.9,27.0,85,29.85,6.0,Variable,6.9,19.6,0.00,,Overcast,0,2013-03-01 01:51:00
9:00 PM,30.2,26.6,86,29.78,4.0,West,10.4,18.4,0.00,Rain,Light Freezing Rain,270,2013-03-01 02:00:00
9:12 PM,30.2,26.6,86,29.78,3.0,West,8.1,-,0.00,Snow,Light Snow,270,2013-03-01 02:12:00
9:34 PM,32.0,26.6,80,29.78,2.0,WNW,12.7,19.6,0.01,Snow,Light Snow,290,2013-03-01 02:34:00
9:40 PM,30.2,26.6,86,29.78,1.5,West,8.1,19.6,0.01,Snow,Light Snow,280,2013-03-01 02:40:00
9:51 PM,30.9,28.0,89,29.85,1.8,NW,9.2,-,0.01,Snow,Light Snow,310,2013-03-01 02:51:00
9:59 PM,30.2,26.6,86,29.78,2.5,WNW,10.4,-,0.00,Snow,Light Snow,300,2013-03-01 02:59:00
10:06 PM,32.0,26.6,80,29.78,3.0,WNW,12.7,18.4,0.01,Snow,Light Snow,300,2013-03-01 03:06:00
10:29 PM,32.0,26.6,80,29.78,4.0,NW,11.5,18.4,0.01,Snow,Light Snow,310,2013-03-01 03:29:00
10:40 PM,30.2,26.6,86,29.78,2.5,WNW,9.2,-,0.01,Snow,Light Snow,300,2013-03-01 03:40:00
10:51 PM,30.9,27.0,85,29.85,3.0,NW,9.2,-,0.01,Snow,Light Snow,310,2013-03-01 03:51:00
11:51 PM,30.9,26.1,82,29.85,9.0,NW,9.2,-,0.00,,Overcast,310,2013-03-01 04:51:00